Year,Month,Day,Hour,Minute,Value (Times are PST for temperature in C)
2010,09,29,00,00,9.40
2010,09,29,00,01,9.40
2010,09,29,00,02,9.40
2010,09,29,00,03,9.40
2010,09,29,00,04,9.40
2010,09,29,00,05,9.40
2010,09,29,00,06,9.40
2010,09,29,00,07,9.30
2010,09,29,00,08,9.30
2010,09,29,00,09,9.30
2010,09,29,00,10,9.30
2010,09,29,00,11,9.30
2010,09,29,00,12,9.30
2010,09,29,00,13,9.30
2010,09,29,00,14,9.30
2010,09,29,00,15,9.30
2010,09,29,00,16,9.30
2010,09,29,00,17,9.30
2010,09,29,00,18,9.30
2010,09,29,00,19,9.30
2010,09,29,00,20,9.30
2010,09,29,00,21,9.30
2010,09,29,00,22,9.30
2010,09,29,00,23,9.20
2010,09,29,00,24,9.20
2010,09,29,00,25,9.20
2010,09,29,00,26,9.20
2010,09,29,00,27,9.20
2010,09,29,00,28,9.20
2010,09,29,00,29,9.20
2010,09,29,00,30,9.20
2010,09,29,00,31,9.20
2010,09,29,00,32,9.20
2010,09,29,00,33,9.20
2010,09,29,00,34,9.10
2010,09,29,00,35,9.10
2010,09,29,00,36,9.10
2010,09,29,00,37,9.00
2010,09,29,00,38,9.00
2010,09,29,00,39,9.00
2010,09,29,00,40,8.90
2010,09,29,00,41,8.90
2010,09,29,00,42,8.90
2010,09,29,00,43,8.90
2010,09,29,00,44,8.90
2010,09,29,00,45,8.90
2010,09,29,00,46,8.90
2010,09,29,00,47,8.80
2010,09,29,00,48,8.80
2010,09,29,00,49,8.80
2010,09,29,00,50,8.80
2010,09,29,00,51,8.80
2010,09,29,00,52,8.80
2010,09,29,00,53,8.80
2010,09,29,00,54,8.80
2010,09,29,00,55,8.80
2010,09,29,00,56,8.80
2010,09,29,00,57,8.80
2010,09,29,00,58,8.80
2010,09,29,00,59,8.80
2010,09,29,01,00,8.80
2010,09,29,01,01,8.80
2010,09,29,01,02,8.80
2010,09,29,01,03,8.80
2010,09,29,01,04,8.80
2010,09,29,01,05,8.80
2010,09,29,01,06,8.80
2010,09,29,01,07,8.80
2010,09,29,01,08,8.80
2010,09,29,01,09,8.80
2010,09,29,01,10,8.80
2010,09,29,01,11,8.80
2010,09,29,01,12,8.80
2010,09,29,01,13,8.80
2010,09,29,01,14,8.80
2010,09,29,01,15,8.80
2010,09,29,01,16,8.80
2010,09,29,01,17,8.70
2010,09,29,01,18,8.70
2010,09,29,01,19,8.70
2010,09,29,01,20,8.70
2010,09,29,01,21,8.70
2010,09,29,01,22,8.70
2010,09,29,01,23,8.70
2010,09,29,01,24,8.70
2010,09,29,01,25,8.70
2010,09,29,01,26,8.70
2010,09,29,01,27,8.70
2010,09,29,01,28,8.70
2010,09,29,01,29,8.70
2010,09,29,01,30,8.70
2010,09,29,01,31,8.80
2010,09,29,01,32,8.80
2010,09,29,01,33,8.80
2010,09,29,01,34,8.70
2010,09,29,01,35,8.70
2010,09,29,01,36,8.70
2010,09,29,01,37,8.70
2010,09,29,01,38,8.70
2010,09,29,01,39,8.70
2010,09,29,01,40,8.70
2010,09,29,01,41,8.70
2010,09,29,01,42,8.70
2010,09,29,01,43,8.80
2010,09,29,01,44,8.80
2010,09,29,01,45,8.80
2010,09,29,01,46,8.80
2010,09,29,01,47,8.80
2010,09,29,01,48,8.80
2010,09,29,01,49,8.80
2010,09,29,01,50,8.80
2010,09,29,01,51,8.80
2010,09,29,01,52,8.80
2010,09,29,01,53,8.80
2010,09,29,01,54,8.80
2010,09,29,01,55,8.80
2010,09,29,01,56,8.80
2010,09,29,01,57,8.80
2010,09,29,01,58,8.80
2010,09,29,01,59,8.80
2010,09,29,02,00,8.80
2010,09,29,02,01,8.80
2010,09,29,02,02,8.90
2010,09,29,02,03,8.90
2010,09,29,02,04,8.90
2010,09,29,02,05,8.90
2010,09,29,02,06,8.90
2010,09,29,02,07,8.90
2010,09,29,02,08,8.90
2010,09,29,02,09,8.90
2010,09,29,02,10,8.90
2010,09,29,02,11,8.90
2010,09,29,02,12,8.90
2010,09,29,02,13,8.90
2010,09,29,02,14,8.90
2010,09,29,02,15,8.90
2010,09,29,02,16,8.90
2010,09,29,02,17,8.90
2010,09,29,02,18,8.90
2010,09,29,02,19,8.80
2010,09,29,02,20,8.80
2010,09,29,02,21,8.80
2010,09,29,02,22,8.80
2010,09,29,02,23,8.80
2010,09,29,02,24,8.80
2010,09,29,02,25,8.80
2010,09,29,02,26,8.80
2010,09,29,02,27,8.80
2010,09,29,02,28,8.80
2010,09,29,02,29,8.80
2010,09,29,02,30,8.80
2010,09,29,02,31,8.80
2010,09,29,02,32,8.80
2010,09,29,02,33,8.80
2010,09,29,02,34,8.80
2010,09,29,02,35,8.80
2010,09,29,02,36,8.70
2010,09,29,02,37,8.70
2010,09,29,02,38,8.70
2010,09,29,02,39,8.70
2010,09,29,02,40,8.70
2010,09,29,02,41,8.70
2010,09,29,02,42,8.70
2010,09,29,02,43,8.70
2010,09,29,02,44,8.70
2010,09,29,02,45,8.70
2010,09,29,02,46,8.60
2010,09,29,02,47,8.60
2010,09,29,02,48,8.60
2010,09,29,02,49,8.60
2010,09,29,02,50,8.60
2010,09,29,02,51,8.60
2010,09,29,02,52,8.60
2010,09,29,02,53,8.60
2010,09,29,02,54,8.60
2010,09,29,02,55,8.60
2010,09,29,02,56,8.50
2010,09,29,02,57,8.50
2010,09,29,02,58,8.50
2010,09,29,02,59,8.50
2010,09,29,03,00,8.50
2010,09,29,03,01,8.50
2010,09,29,03,02,8.40
2010,09,29,03,03,8.40
2010,09,29,03,04,8.40
2010,09,29,03,05,8.40
2010,09,29,03,06,8.40
2010,09,29,03,07,8.40
2010,09,29,03,08,8.40
2010,09,29,03,09,8.40
2010,09,29,03,10,8.40
2010,09,29,03,11,8.40
2010,09,29,03,12,8.40
2010,09,29,03,13,8.30
2010,09,29,03,14,8.30
2010,09,29,03,15,8.30
2010,09,29,03,16,8.30
2010,09,29,03,17,8.30
2010,09,29,03,18,8.30
2010,09,29,03,19,8.30
2010,09,29,03,20,8.30
2010,09,29,03,21,8.30
2010,09,29,03,22,8.30
2010,09,29,03,23,8.30
2010,09,29,03,24,8.30
2010,09,29,03,25,8.30
2010,09,29,03,26,8.30
2010,09,29,03,27,8.30
2010,09,29,03,28,8.20
2010,09,29,03,29,8.20
2010,09,29,03,30,8.20
2010,09,29,03,31,8.20
2010,09,29,03,32,8.30
2010,09,29,03,33,8.30
2010,09,29,03,34,8.30
2010,09,29,03,35,8.30
2010,09,29,03,36,8.30
2010,09,29,03,37,8.30
2010,09,29,03,38,8.30
2010,09,29,03,39,8.30
2010,09,29,03,40,8.30
2010,09,29,03,41,8.30
2010,09,29,03,42,8.30
2010,09,29,03,43,8.30
2010,09,29,03,44,8.30
2010,09,29,03,45,8.20
2010,09,29,03,46,8.20
2010,09,29,03,47,8.20
2010,09,29,03,48,8.20
2010,09,29,03,49,8.20
2010,09,29,03,50,8.20
2010,09,29,03,51,8.20
2010,09,29,03,52,8.20
2010,09,29,03,53,8.10
2010,09,29,03,54,8.10
2010,09,29,03,55,8.10
2010,09,29,03,56,8.10
2010,09,29,03,57,8.10
2010,09,29,03,58,8.10
2010,09,29,03,59,8.10
2010,09,29,04,00,8.00
2010,09,29,04,01,8.00
2010,09,29,04,02,8.00
2010,09,29,04,03,8.00
2010,09,29,04,04,8.00
2010,09,29,04,05,7.90
2010,09,29,04,06,7.90
2010,09,29,04,07,7.90
2010,09,29,04,08,7.90
2010,09,29,04,09,7.90
2010,09,29,04,10,7.90
2010,09,29,04,11,7.90
2010,09,29,04,12,7.90
2010,09,29,04,13,7.90
2010,09,29,04,14,7.90
2010,09,29,04,15,7.90
2010,09,29,04,16,7.90
2010,09,29,04,17,7.90
2010,09,29,04,18,7.90
2010,09,29,04,19,7.90
2010,09,29,04,20,7.90
2010,09,29,04,21,7.90
2010,09,29,04,22,7.90
2010,09,29,04,23,7.90
2010,09,29,04,24,7.90
2010,09,29,04,25,7.90
2010,09,29,04,26,7.80
2010,09,29,04,27,7.80
2010,09,29,04,28,7.80
2010,09,29,04,29,7.80
2010,09,29,04,30,7.80
2010,09,29,04,31,7.80
2010,09,29,04,32,7.80
2010,09,29,04,33,7.80
2010,09,29,04,34,7.70
2010,09,29,04,35,7.70
2010,09,29,04,36,7.70
2010,09,29,04,37,7.70
2010,09,29,04,38,7.70
2010,09,29,04,39,7.70
2010,09,29,04,40,7.70
2010,09,29,04,41,7.70
2010,09,29,04,42,7.70
2010,09,29,04,43,7.60
2010,09,29,04,44,7.60
2010,09,29,04,45,7.60
2010,09,29,04,46,7.60
2010,09,29,04,47,7.60
2010,09,29,04,48,7.60
2010,09,29,04,49,7.70
2010,09,29,04,50,7.70
2010,09,29,04,51,7.70
2010,09,29,04,52,7.70
2010,09,29,04,53,7.70
2010,09,29,04,54,7.70
2010,09,29,04,55,7.70
2010,09,29,04,56,7.70
2010,09,29,04,57,7.70
2010,09,29,04,58,7.70
2010,09,29,04,59,7.70
2010,09,29,05,00,7.70
2010,09,29,05,01,7.70
2010,09,29,05,02,7.60
2010,09,29,05,03,7.60
2010,09,29,05,04,7.60
2010,09,29,05,05,7.60
2010,09,29,05,06,7.60
2010,09,29,05,07,7.60
2010,09,29,05,08,7.60
2010,09,29,05,09,7.60
2010,09,29,05,10,7.60
2010,09,29,05,11,7.60
2010,09,29,05,12,7.60
2010,09,29,05,13,7.60
2010,09,29,05,14,7.70
2010,09,29,05,15,7.70
2010,09,29,05,16,7.60
2010,09,29,05,17,7.60
2010,09,29,05,18,7.60
2010,09,29,05,19,7.60
2010,09,29,05,20,7.60
2010,09,29,05,21,7.60
2010,09,29,05,22,7.60
2010,09,29,05,23,7.60
2010,09,29,05,24,7.60
2010,09,29,05,25,7.60
2010,09,29,05,26,7.60
2010,09,29,05,27,7.60
2010,09,29,05,28,7.60
2010,09,29,05,29,7.60
2010,09,29,05,30,7.60
2010,09,29,05,31,7.60
2010,09,29,05,32,7.60
2010,09,29,05,33,7.60
2010,09,29,05,34,7.60
2010,09,29,05,35,7.60
2010,09,29,05,36,7.60
2010,09,29,05,37,7.60
2010,09,29,05,38,7.60
2010,09,29,05,39,7.60
2010,09,29,05,40,7.60
2010,09,29,05,41,7.60
2010,09,29,05,42,7.60
2010,09,29,05,43,7.70
2010,09,29,05,44,7.70
2010,09,29,05,45,7.70
2010,09,29,05,46,7.80
2010,09,29,05,47,7.80
2010,09,29,05,48,7.80
2010,09,29,05,49,7.90
2010,09,29,05,50,8.00
2010,09,29,05,51,8.10
2010,09,29,05,52,8.20
2010,09,29,05,53,8.30
2010,09,29,05,54,8.40
2010,09,29,05,55,8.40
2010,09,29,05,56,8.50
2010,09,29,05,57,8.50
2010,09,29,05,58,8.60
2010,09,29,05,59,8.60
2010,09,29,06,00,8.60
2010,09,29,06,01,8.60
2010,09,29,06,02,8.60
2010,09,29,06,03,8.60
2010,09,29,06,04,8.70
2010,09,29,06,05,8.80
2010,09,29,06,06,8.90
2010,09,29,06,07,9.00
2010,09,29,06,08,9.10
2010,09,29,06,09,9.20
2010,09,29,06,10,9.20
2010,09,29,06,11,9.20
2010,09,29,06,12,9.20
2010,09,29,06,13,9.20
2010,09,29,06,14,9.20
2010,09,29,06,15,9.30
2010,09,29,06,16,9.30
2010,09,29,06,17,9.40
2010,09,29,06,18,9.40
2010,09,29,06,19,9.50
2010,09,29,06,20,9.70
2010,09,29,06,21,9.80
2010,09,29,06,22,9.80
2010,09,29,06,23,9.90
2010,09,29,06,24,9.90
2010,09,29,06,25,9.90
2010,09,29,06,26,9.80
2010,09,29,06,27,9.90
2010,09,29,06,28,9.90
2010,09,29,06,29,9.90
2010,09,29,06,30,10.00
2010,09,29,06,31,10.00
2010,09,29,06,32,10.00
2010,09,29,06,33,10.00
2010,09,29,06,34,10.00
2010,09,29,06,35,10.00
2010,09,29,06,36,10.10
2010,09,29,06,37,10.10
2010,09,29,06,38,10.20
2010,09,29,06,39,10.20
2010,09,29,06,40,10.30
2010,09,29,06,41,10.30
2010,09,29,06,42,10.40
2010,09,29,06,43,10.40
2010,09,29,06,44,10.50
2010,09,29,06,45,10.50
2010,09,29,06,46,10.50
2010,09,29,06,47,10.60
2010,09,29,06,48,10.70
2010,09,29,06,49,10.70
2010,09,29,06,50,10.80
2010,09,29,06,51,10.80
2010,09,29,06,52,10.80
2010,09,29,06,53,10.80
2010,09,29,06,54,10.70
2010,09,29,06,55,10.70
2010,09,29,06,56,10.70
2010,09,29,06,57,10.60
2010,09,29,06,58,10.60
2010,09,29,06,59,10.60
2010,09,29,07,00,10.50
2010,09,29,07,01,10.50
2010,09,29,07,02,10.60
2010,09,29,07,03,10.60
2010,09,29,07,04,10.70
2010,09,29,07,05,10.70
2010,09,29,07,06,10.70
2010,09,29,07,07,10.70
2010,09,29,07,08,10.70
2010,09,29,07,09,10.70
2010,09,29,07,10,10.70
2010,09,29,07,11,10.80
2010,09,29,07,12,10.80
2010,09,29,07,13,10.80
2010,09,29,07,14,10.80
2010,09,29,07,15,10.80
2010,09,29,07,16,10.80
2010,09,29,07,17,10.80
2010,09,29,07,18,10.80
2010,09,29,07,19,10.80
2010,09,29,07,20,10.80
2010,09,29,07,21,10.80
2010,09,29,07,22,10.80
2010,09,29,07,23,10.80
2010,09,29,07,24,10.80
2010,09,29,07,25,10.80
2010,09,29,07,26,10.80
2010,09,29,07,27,10.80
2010,09,29,07,28,10.90
2010,09,29,07,29,10.90
2010,09,29,07,30,10.90
2010,09,29,07,31,10.90
2010,09,29,07,32,10.90
2010,09,29,07,33,10.90
2010,09,29,07,34,10.90
2010,09,29,07,35,11.00
2010,09,29,07,36,11.00
2010,09,29,07,37,11.00
2010,09,29,07,38,11.10
2010,09,29,07,39,11.10
2010,09,29,07,40,11.10
2010,09,29,07,41,11.20
2010,09,29,07,42,11.20
2010,09,29,07,43,11.20
2010,09,29,07,44,11.20
2010,09,29,07,45,11.20
2010,09,29,07,46,11.10
2010,09,29,07,47,11.10
2010,09,29,07,48,11.20
2010,09,29,07,49,11.20
2010,09,29,07,50,11.20
2010,09,29,07,51,11.20
2010,09,29,07,52,11.20
2010,09,29,07,53,11.20
2010,09,29,07,54,11.20
2010,09,29,07,55,11.20
2010,09,29,07,56,11.30
2010,09,29,07,57,11.30
2010,09,29,07,58,11.30
2010,09,29,07,59,11.30
2010,09,29,08,00,11.30
2010,09,29,08,01,11.30
2010,09,29,08,02,11.30
2010,09,29,08,03,11.30
2010,09,29,08,04,11.30
2010,09,29,08,05,11.30
2010,09,29,08,06,11.30
2010,09,29,08,07,11.30
2010,09,29,08,08,11.30
2010,09,29,08,09,11.30
2010,09,29,08,10,11.30
2010,09,29,08,11,11.40
2010,09,29,08,12,11.40
2010,09,29,08,13,11.50
2010,09,29,08,14,11.60
2010,09,29,08,15,11.60
2010,09,29,08,16,11.60
2010,09,29,08,17,11.60
2010,09,29,08,18,11.60
2010,09,29,08,19,11.60
2010,09,29,08,20,11.60
2010,09,29,08,21,11.70
2010,09,29,08,22,11.70
2010,09,29,08,23,11.70
2010,09,29,08,24,11.80
2010,09,29,08,25,11.80
2010,09,29,08,26,11.80
2010,09,29,08,27,11.80
2010,09,29,08,28,11.80
2010,09,29,08,29,11.80
2010,09,29,08,30,11.80
2010,09,29,08,31,11.70
2010,09,29,08,32,11.70
2010,09,29,08,33,11.80
2010,09,29,08,34,11.80
2010,09,29,08,35,11.80
2010,09,29,08,36,11.80
2010,09,29,08,37,11.80
2010,09,29,08,38,11.80
2010,09,29,08,39,11.80
2010,09,29,08,40,11.80
2010,09,29,08,41,11.80
2010,09,29,08,42,11.80
2010,09,29,08,43,11.80
2010,09,29,08,44,11.80
2010,09,29,08,45,11.90
2010,09,29,08,46,11.90
2010,09,29,08,47,11.90
2010,09,29,08,48,11.90
2010,09,29,08,49,11.90
2010,09,29,08,50,12.00
2010,09,29,08,51,12.00
2010,09,29,08,52,12.10
2010,09,29,08,53,12.10
2010,09,29,08,54,12.10
2010,09,29,08,55,12.10
2010,09,29,08,56,12.10
2010,09,29,08,57,12.20
2010,09,29,08,58,12.20
2010,09,29,08,59,12.20
2010,09,29,09,00,12.20
2010,09,29,09,01,12.20
2010,09,29,09,02,12.20
2010,09,29,09,03,12.20
2010,09,29,09,04,12.30
2010,09,29,09,05,12.30
2010,09,29,09,06,12.30
2010,09,29,09,07,12.30
2010,09,29,09,08,12.30
2010,09,29,09,09,12.30
2010,09,29,09,10,12.30
2010,09,29,09,11,12.30
2010,09,29,09,12,12.30
2010,09,29,09,13,12.30
2010,09,29,09,14,12.40
2010,09,29,09,15,12.40
2010,09,29,09,16,12.40
2010,09,29,09,17,12.50
2010,09,29,09,18,12.50
2010,09,29,09,19,12.60
2010,09,29,09,20,12.60
2010,09,29,09,21,12.60
2010,09,29,09,22,12.70
2010,09,29,09,23,12.70
2010,09,29,09,24,12.70
2010,09,29,09,25,12.70
2010,09,29,09,26,12.80
2010,09,29,09,27,12.80
2010,09,29,09,28,12.80
2010,09,29,09,29,12.80
2010,09,29,09,30,12.80
2010,09,29,09,31,12.90
2010,09,29,09,32,12.90
2010,09,29,09,33,12.90
2010,09,29,09,34,13.00
2010,09,29,09,35,13.00
2010,09,29,09,36,13.10
2010,09,29,09,37,13.10
2010,09,29,09,38,13.20
2010,09,29,09,39,13.20
2010,09,29,09,40,13.20
2010,09,29,09,41,13.20
2010,09,29,09,42,13.20
2010,09,29,09,43,13.20
2010,09,29,09,44,13.20
2010,09,29,09,45,13.20
2010,09,29,09,46,13.20
2010,09,29,09,47,13.30
2010,09,29,09,48,13.30
2010,09,29,09,49,13.30
2010,09,29,09,50,13.30
2010,09,29,09,51,13.40
2010,09,29,09,52,13.40
2010,09,29,09,53,13.40
2010,09,29,09,54,13.40
2010,09,29,09,55,13.40
2010,09,29,09,56,13.40
2010,09,29,09,57,13.40
2010,09,29,09,58,13.40
2010,09,29,09,59,13.40
2010,09,29,10,00,13.40
2010,09,29,10,01,13.40
2010,09,29,10,02,13.50
2010,09,29,10,03,13.50
2010,09,29,10,04,13.50
2010,09,29,10,05,13.50
2010,09,29,10,06,13.60
2010,09,29,10,07,13.60
2010,09,29,10,08,13.60
2010,09,29,10,09,13.60
2010,09,29,10,10,13.70
2010,09,29,10,11,13.70
2010,09,29,10,12,13.70
2010,09,29,10,13,13.70
2010,09,29,10,14,13.70
2010,09,29,10,15,13.70
2010,09,29,10,16,13.80
2010,09,29,10,17,13.80
2010,09,29,10,18,13.80
2010,09,29,10,19,13.80
2010,09,29,10,20,13.80
2010,09,29,10,21,13.90
2010,09,29,10,22,13.90
2010,09,29,10,23,13.90
2010,09,29,10,24,13.90
2010,09,29,10,25,13.90
2010,09,29,10,26,13.90
2010,09,29,10,27,13.90
2010,09,29,10,28,14.00
2010,09,29,10,29,14.00
2010,09,29,10,30,14.00
2010,09,29,10,31,14.00
2010,09,29,10,32,14.00
2010,09,29,10,33,14.10
2010,09,29,10,34,14.10
2010,09,29,10,35,14.10
2010,09,29,10,36,14.10
2010,09,29,10,37,14.10
2010,09,29,10,38,14.10
2010,09,29,10,39,14.10
2010,09,29,10,40,14.10
2010,09,29,10,41,14.00
2010,09,29,10,42,14.10
2010,09,29,10,43,14.10
2010,09,29,10,44,14.10
2010,09,29,10,45,14.20
2010,09,29,10,46,14.20
2010,09,29,10,47,14.30
2010,09,29,10,48,14.30
2010,09,29,10,49,14.30
2010,09,29,10,50,14.40
2010,09,29,10,51,14.40
2010,09,29,10,52,14.40
2010,09,29,10,53,14.50
2010,09,29,10,54,14.50
2010,09,29,10,55,14.50
2010,09,29,10,56,14.50
2010,09,29,10,57,14.50
2010,09,29,10,58,14.60
2010,09,29,10,59,14.60
2010,09,29,11,00,14.60
2010,09,29,11,01,14.60
2010,09,29,11,02,14.70
2010,09,29,11,03,14.70
2010,09,29,11,04,14.70
2010,09,29,11,05,14.70
2010,09,29,11,06,14.70
2010,09,29,11,07,14.70
2010,09,29,11,08,14.80
2010,09,29,11,09,14.80
2010,09,29,11,10,14.80
2010,09,29,11,11,14.80
2010,09,29,11,12,14.90
2010,09,29,11,13,14.90
2010,09,29,11,14,14.90
2010,09,29,11,15,14.90
2010,09,29,11,16,14.90
2010,09,29,11,17,15.00
2010,09,29,11,18,15.00
2010,09,29,11,19,15.00
2010,09,29,11,20,15.00
2010,09,29,11,21,15.00
2010,09,29,11,22,15.00
2010,09,29,11,23,15.00
2010,09,29,11,24,15.00
2010,09,29,11,25,15.00
2010,09,29,11,26,15.00
2010,09,29,11,27,15.00
2010,09,29,11,28,15.00
2010,09,29,11,29,15.00
2010,09,29,11,30,15.00
2010,09,29,11,31,15.00
2010,09,29,11,32,15.00
2010,09,29,11,33,15.00
2010,09,29,11,34,15.00
2010,09,29,11,35,15.00
2010,09,29,11,36,15.00
2010,09,29,11,37,15.00
2010,09,29,11,38,15.00
2010,09,29,11,39,15.00
2010,09,29,11,40,15.00
2010,09,29,11,41,15.00
2010,09,29,11,42,15.00
2010,09,29,11,43,15.00
2010,09,29,11,44,15.00
2010,09,29,11,45,15.00
2010,09,29,11,46,15.00
2010,09,29,11,47,15.00
2010,09,29,11,48,15.00
2010,09,29,11,49,15.00
2010,09,29,11,50,15.00
2010,09,29,11,51,15.00
2010,09,29,11,52,15.00
2010,09,29,11,53,15.00
2010,09,29,11,54,15.00
2010,09,29,11,55,15.00
2010,09,29,11,56,15.00
2010,09,29,11,57,15.00
2010,09,29,11,58,15.10
2010,09,29,11,59,15.10
2010,09,29,12,00,15.10
2010,09,29,12,01,15.10
2010,09,29,12,02,15.10
2010,09,29,12,03,15.10
2010,09,29,12,04,15.20
2010,09,29,12,05,15.20
2010,09,29,12,06,15.20
2010,09,29,12,07,15.20
2010,09,29,12,08,15.20
2010,09,29,12,09,15.20
2010,09,29,12,10,15.30
2010,09,29,12,11,15.30
2010,09,29,12,12,15.30
2010,09,29,12,13,15.40
2010,09,29,12,14,15.40
2010,09,29,12,15,15.40
2010,09,29,12,16,15.50
2010,09,29,12,17,15.60
2010,09,29,12,18,15.60
2010,09,29,12,19,15.70
2010,09,29,12,20,15.80
2010,09,29,12,21,15.90
2010,09,29,12,22,15.90
2010,09,29,12,23,16.00
2010,09,29,12,24,16.10
2010,09,29,12,25,16.20
2010,09,29,12,26,16.20
2010,09,29,12,27,16.20
2010,09,29,12,28,16.30
2010,09,29,12,29,16.30
2010,09,29,12,30,16.30
2010,09,29,12,31,16.30
2010,09,29,12,32,16.30
2010,09,29,12,33,16.30
2010,09,29,12,34,16.30
2010,09,29,12,35,16.30
2010,09,29,12,36,16.30
2010,09,29,12,37,16.30
2010,09,29,12,38,16.30
2010,09,29,12,39,16.30
2010,09,29,12,40,16.30
2010,09,29,12,41,16.30
2010,09,29,12,42,16.30
2010,09,29,12,43,16.30
2010,09,29,12,44,16.40
2010,09,29,12,45,16.40
2010,09,29,12,46,16.40
2010,09,29,12,47,16.40
2010,09,29,12,48,16.40
2010,09,29,12,49,16.30
2010,09,29,12,50,16.40
2010,09,29,12,51,16.40
2010,09,29,12,52,16.30
2010,09,29,12,53,16.30
2010,09,29,12,54,16.30
2010,09,29,12,55,16.30
2010,09,29,12,56,16.30
2010,09,29,12,57,16.30
2010,09,29,12,58,16.40
2010,09,29,12,59,16.40
2010,09,29,13,00,16.40
2010,09,29,13,01,16.50
2010,09,29,13,02,16.60
2010,09,29,13,03,16.70
2010,09,29,13,04,16.70
2010,09,29,13,05,16.70
2010,09,29,13,06,16.70
2010,09,29,13,07,16.80
2010,09,29,13,08,16.80
2010,09,29,13,09,16.80
2010,09,29,13,10,16.80
2010,09,29,13,11,16.80
2010,09,29,13,12,16.80
2010,09,29,13,13,16.80
2010,09,29,13,14,16.80
2010,09,29,13,15,16.80
2010,09,29,13,16,16.80
2010,09,29,13,17,16.90
2010,09,29,13,18,16.90
2010,09,29,13,19,16.90
2010,09,29,13,20,16.90
2010,09,29,13,21,17.00
2010,09,29,13,22,17.00
2010,09,29,13,23,17.00
2010,09,29,13,24,17.00
2010,09,29,13,25,17.00
2010,09,29,13,26,17.00
2010,09,29,13,27,17.00
2010,09,29,13,28,17.00
2010,09,29,13,29,17.00
2010,09,29,13,30,17.00
2010,09,29,13,31,17.10
2010,09,29,13,32,17.10
2010,09,29,13,33,17.20
2010,09,29,13,34,17.20
2010,09,29,13,35,17.20
2010,09,29,13,36,17.20
2010,09,29,13,37,17.30
2010,09,29,13,38,17.30
2010,09,29,13,39,17.30
2010,09,29,13,40,17.30
2010,09,29,13,41,17.30
2010,09,29,13,42,17.20
2010,09,29,13,43,17.20
2010,09,29,13,44,17.20
2010,09,29,13,45,17.10
2010,09,29,13,46,17.10
2010,09,29,13,47,17.10
2010,09,29,13,48,17.20
2010,09,29,13,49,17.20
2010,09,29,13,50,17.20
2010,09,29,13,51,17.20
2010,09,29,13,52,17.20
2010,09,29,13,53,17.20
2010,09,29,13,54,17.20
2010,09,29,13,55,17.20
2010,09,29,13,56,17.20
2010,09,29,13,57,17.20
2010,09,29,13,58,17.20
2010,09,29,13,59,17.20
2010,09,29,14,00,17.20
2010,09,29,14,01,17.20
2010,09,29,14,02,17.20
2010,09,29,14,03,17.20
2010,09,29,14,04,17.20
2010,09,29,14,05,17.30
2010,09,29,14,06,17.30
2010,09,29,14,07,17.30
2010,09,29,14,08,17.30
2010,09,29,14,09,17.30
2010,09,29,14,10,17.30
2010,09,29,14,11,17.30
2010,09,29,14,12,17.30
2010,09,29,14,13,17.30
2010,09,29,14,14,17.30
2010,09,29,14,15,17.30
2010,09,29,14,16,17.30
2010,09,29,14,17,17.30
2010,09,29,14,18,17.30
2010,09,29,14,19,17.30
2010,09,29,14,20,17.30
2010,09,29,14,21,17.30
2010,09,29,14,22,17.30
2010,09,29,14,23,17.30
2010,09,29,14,24,17.30
2010,09,29,14,25,17.30
2010,09,29,14,26,17.30
2010,09,29,14,27,17.30
2010,09,29,14,28,17.20
2010,09,29,14,29,17.20
2010,09,29,14,30,17.20
2010,09,29,14,31,17.10
2010,09,29,14,32,17.10
2010,09,29,14,33,17.10
2010,09,29,14,34,17.10
2010,09,29,14,35,17.10
2010,09,29,14,36,17.10
2010,09,29,14,37,17.10
2010,09,29,14,38,17.10
2010,09,29,14,39,17.10
2010,09,29,14,40,17.10
2010,09,29,14,41,17.10
2010,09,29,14,42,17.10
2010,09,29,14,43,17.10
2010,09,29,14,44,17.00
2010,09,29,14,45,17.00
2010,09,29,14,46,17.00
2010,09,29,14,47,17.00
2010,09,29,14,48,17.00
2010,09,29,14,49,16.90
2010,09,29,14,50,16.90
2010,09,29,14,51,16.90
2010,09,29,14,52,16.90
2010,09,29,14,53,16.90
2010,09,29,14,54,16.80
2010,09,29,14,55,16.80
2010,09,29,14,56,16.80
2010,09,29,14,57,16.80
2010,09,29,14,58,16.80
2010,09,29,14,59,16.80
2010,09,29,15,00,16.80
2010,09,29,15,01,16.80
2010,09,29,15,02,16.80
2010,09,29,15,03,16.80
2010,09,29,15,04,16.80
2010,09,29,15,05,16.80
2010,09,29,15,06,16.80
2010,09,29,15,07,16.80
2010,09,29,15,08,16.80
2010,09,29,15,09,16.80
2010,09,29,15,10,16.80
2010,09,29,15,11,16.80
2010,09,29,15,12,16.80
2010,09,29,15,13,16.90
2010,09,29,15,14,16.90
2010,09,29,15,15,16.90
2010,09,29,15,16,17.00
2010,09,29,15,17,17.00
2010,09,29,15,18,17.00
2010,09,29,15,19,17.10
2010,09,29,15,20,17.20
2010,09,29,15,21,17.20
2010,09,29,15,22,17.30
2010,09,29,15,23,17.30
2010,09,29,15,24,17.40
2010,09,29,15,25,17.40
2010,09,29,15,26,17.40
2010,09,29,15,27,17.50
2010,09,29,15,28,17.60
2010,09,29,15,29,17.60
2010,09,29,15,30,17.70
2010,09,29,15,31,17.80
2010,09,29,15,32,17.80
2010,09,29,15,33,17.80
2010,09,29,15,34,17.80
2010,09,29,15,35,17.80
2010,09,29,15,36,17.80
2010,09,29,15,37,17.80
2010,09,29,15,38,17.80
2010,09,29,15,39,17.80
2010,09,29,15,40,17.80
2010,09,29,15,41,17.80
2010,09,29,15,42,17.80
2010,09,29,15,43,17.70
2010,09,29,15,44,17.70
2010,09,29,15,45,17.70
2010,09,29,15,46,17.70
2010,09,29,15,47,17.70
2010,09,29,15,48,17.70
2010,09,29,15,49,17.70
2010,09,29,15,50,17.70
2010,09,29,15,51,17.70
2010,09,29,15,52,17.70
2010,09,29,15,53,17.70
2010,09,29,15,54,17.70
2010,09,29,15,55,17.70
2010,09,29,15,56,17.70
2010,09,29,15,57,17.70
2010,09,29,15,58,17.70
2010,09,29,15,59,17.70
2010,09,29,16,00,17.70
2010,09,29,16,01,17.70
2010,09,29,16,02,17.70
2010,09,29,16,03,17.70
2010,09,29,16,04,17.70
2010,09,29,16,05,17.70
2010,09,29,16,06,17.70
2010,09,29,16,07,17.70
2010,09,29,16,08,17.70
2010,09,29,16,09,17.70
2010,09,29,16,10,17.70
2010,09,29,16,11,17.70
2010,09,29,16,12,17.70
2010,09,29,16,13,17.60
2010,09,29,16,14,17.50
2010,09,29,16,15,17.40
2010,09,29,16,16,17.40
2010,09,29,16,17,17.30
2010,09,29,16,18,17.30
2010,09,29,16,19,17.20
2010,09,29,16,20,17.20
2010,09,29,16,21,17.10
2010,09,29,16,22,17.00
2010,09,29,16,23,16.90
2010,09,29,16,24,16.90
2010,09,29,16,25,16.80
2010,09,29,16,26,16.80
2010,09,29,16,27,16.80
2010,09,29,16,28,16.70
2010,09,29,16,29,16.70
2010,09,29,16,30,16.70
2010,09,29,16,31,16.70
2010,09,29,16,32,16.70
2010,09,29,16,33,16.70
2010,09,29,16,34,16.60
2010,09,29,16,35,16.60
2010,09,29,16,36,16.60
2010,09,29,16,37,16.60
2010,09,29,16,38,16.60
2010,09,29,16,39,16.60
2010,09,29,16,40,16.60
2010,09,29,16,41,16.60
2010,09,29,16,42,16.60
2010,09,29,16,43,16.50
2010,09,29,16,44,16.50
2010,09,29,16,45,16.50
2010,09,29,16,46,16.50
2010,09,29,16,47,16.50
2010,09,29,16,48,16.50
2010,09,29,16,49,16.50
2010,09,29,16,50,16.50
2010,09,29,16,51,16.50
2010,09,29,16,52,16.50
2010,09,29,16,53,16.50
2010,09,29,16,54,16.50
2010,09,29,16,55,16.50
2010,09,29,16,56,16.50
2010,09,29,16,57,16.50
2010,09,29,16,58,16.50
2010,09,29,16,59,16.50
2010,09,29,17,00,16.50
2010,09,29,17,01,16.50
2010,09,29,17,02,16.50
2010,09,29,17,03,16.50
2010,09,29,17,04,16.50
2010,09,29,17,05,16.50
2010,09,29,17,06,16.50
2010,09,29,17,07,16.50
2010,09,29,17,08,16.50
2010,09,29,17,09,16.50
2010,09,29,17,10,16.50
2010,09,29,17,11,16.50
2010,09,29,17,12,16.40
2010,09,29,17,13,16.40
2010,09,29,17,14,16.40
2010,09,29,17,15,16.40
2010,09,29,17,16,16.40
2010,09,29,17,17,16.40
2010,09,29,17,18,16.30
2010,09,29,17,19,16.30
2010,09,29,17,20,16.30
2010,09,29,17,21,16.20
2010,09,29,17,22,16.20
2010,09,29,17,23,16.10
2010,09,29,17,24,16.10
2010,09,29,17,25,16.00
2010,09,29,17,26,16.00
2010,09,29,17,27,15.90
2010,09,29,17,28,15.80
2010,09,29,17,29,15.80
2010,09,29,17,30,15.70
2010,09,29,17,31,15.70
2010,09,29,17,32,15.60
2010,09,29,17,33,15.60
2010,09,29,17,34,15.50
2010,09,29,17,35,15.50
2010,09,29,17,36,15.40